HAWK-C

Last updated on Thu Sep 24 2026 00:03:56 GMT+0000 (Coordinated Universal Time)

1 43799U 18099AT 26265.71907605 .00005107 00000+0 17802-3 0 9998 2 43799 97.3792 318.1087 0037607 300.8246 58.9296 15.29424455428818
UTC large
Height (km)
Speed (km/s)
/
Latitude / Longitude
Inclination (degrees)
Orbital Period (minutes)
Azimuth
Elevation
Range (km)
Doppler Factor

Next 0 passes for location: London (51.5072 / 0.1276)

No passes found over London.
HAWK-C